Content
SEND FEEDBACK

Daily
Averages
Monthly
Summary
United States of America

MANGILAO, GUAM


Home > North America > United States > Guam
Elevation: 60 feet     Latitude: 13 27N     Longitude: 144 49E

WEATHER
 
SELECT A DAY
Number of Records: 356,611;   Date Range: 1/1/95 - 12/19/14
 
SHARE

PRINT THIS DATA

[ ← Previous Day ]
WEATHER ALMANAC - FEBRUARY 16, 2014
[ Next Day → ]
[ °C ]   °F
Weather ElementAverageHighLow
Temperature78.2 °F82.6 °F (12:58 pm)70.9 °F (11:58 pm)
Dewpoint72.6 °F75.2 °F (9:36 pm)68 °F (11:53 pm)
Humidity83.2 %95 % (9:58 pm)70 % (1:58 pm)
Barometer29.91 in29.97 in (10:48 pm)29.83 in (2:58 pm)
Wind Speed11.5 mph15 mph (5:58 pm)
Wind Gust21.9 mph (6:58 pm)
Weather ElementAverage
Visibility9.8 mi
Wind DirectionENE (84.1 °)

Weather ElementTotal
Precipitation0.04 in
Cooling Degree Days11.8 (Base 65)
Growing Degree Days26.8 (Base 50)
Averaged from 27 records on February 16, 2014
WEATHER CONDITIONS BREAKOUT
WIND DIRECTION BREAKOUT
WEATHER BY HOUR - FEBRUARY 16, 2014
[ °C ]   °F
Local TimeTemperatureDewpointHumidityBarometerVisibilityWind DirectionWind SpeedGust SpeedPrecipitationEventsConditions
3:58 AM74.5 °F70.9 °F88 %29.86 in10.0 miNNE (30°)3.5 mphClear
5:58 AM74.3 °F71.2 °F90 %29.86 in10.0 miNE (40°)5.8 mphClear
6:58 AM74.8 °F71.6 °F90 %29.88 in10.0 miNNE (30°)4.6 mphClear
8:58 AM79.9 °F71.6 °F76 %29.92 in10.0 miNorth (10°)8.1 mphClear
9:58 AM81.0 °F72.7 °F76 %29.92 in10.0 miNorth (10°)10.4 mphClear
10:58 AM81.9 °F72.3 °F73 %29.91 in10.0 miNorth (360°)9.2 mphPartly Cloudy
11:58 AM82.2 °F72.7 °F73 %29.89 in10.0 miNorth (10°)12.7 mphPartly Cloudy
12:58 PM82.6 °F72.1 °F71 %29.87 in10.0 miNorth (10°)11.5 mph17.3 mphPartly Cloudy
1:58 PM82.6 °F72.0 °F70 %29.86 in10.0 miNorth (350°)11.5 mphClear
2:58 PM81.9 °F72.1 °F72 %29.83 in10.0 miNorth (10°)13.8 mphPartly Cloudy
3:58 PM81.9 °F72.1 °F72 %29.83 in10.0 miNorth (360°)12.7 mphPartly Cloudy
4:58 PM81.0 °F72.7 °F76 %29.83 in10.0 miNorth (360°)13.8 mphClear
5:58 PM79.3 °F73.0 °F81 %29.86 in10.0 miNorth (360°)15.0 mphClear
6:58 PM78.3 °F71.8 °F80 %29.86 in10.0 miNorth (10°)12.7 mph21.9 mphPartly Cloudy
7:58 PM77.9 °F72.1 °F82 %29.89 in10.0 miNorth (10°)15.0 mphPartly Cloudy
8:53 PM78.8 °F73.4 °F83 %29.95 in10.0 miNNE (20°)12.7 mph20.7 mphMostly Cloudy
8:58 PM78.4 °F73.8 °F85 %29.92 in10.0 miNNE (20°)12.7 mph20.7 mphScattered Clouds
9:28 PM78.8 °F73.4 °F83 %29.96 in10.0 miNNE (20°)13.8 mphMostly Cloudy
9:31 PM78.8 °F73.4 °F83 %29.96 in9.0 miNNE (20°)13.8 mph20.7 mphRainLight Rain
9:36 PM77.0 °F75.2 °F94 %29.96 in6.0 miNNE (30°)13.8 mph20.7 mphRainHeavy Rain
9:47 PM77.0 °F75.2 °F94 %29.96 in10.0 miNNE (30°)12.7 mphMostly Cloudy
9:52 PM77.0 °F75.2 °F94 %29.96 in10.0 miNNE (30°)11.5 mphMostly Cloudy
9:58 PM76.6 °F75.0 °F95 %29.94 in10.0 miNNE (30°)12.7 mph0.04 inScattered Clouds
10:48 PM77.0 °F75.2 °F94 %29.97 in10.0 miNNE (20°)10.4 mphScattered Clouds
10:58 PM76.6 °F73.9 °F91 %29.94 in10.0 miNNE (30°)11.5 mphScattered Clouds
11:53 PM71.6 °F68.0 °F88 %29.96 in10.0 miNNE (30°)13.8 mphMostly Cloudy
11:58 PM70.9 °F68.4 °F92 %29.94 in10.0 miNNE (30°)10.4 mphMostly Cloudy
Hourly data recorded from PGUA, located miles away from Mangilao, Guam







STORIES FROM OUR PARTNERS